FW8061 Weather Reports


Display with metric or nautical units.
time (UTC)temp
F
wind
direction
speed
MPH
gust
MPH
rain 1hr
in
rain 24hr
in
rain mn
in
humidity
%
barometer
mb
20260507112018 45 253 4.0 8.0 0.00 0.00 0.00 69 1007.5
20260507111018 46 224 4.0 9.0 0.00 0.00 0.00 78 1007.3
20260507110018 46 217 4.0 9.0 0.00 0.00 0.00 80 1007.1
20260507105018 45 202 3.0 6.0 0.00 0.00 0.00 81 1007.0
20260507104039 45 211 4.0 9.0 0.00 0.00 0.00 81 1006.9
20260507103040 45 227 4.0 8.0 0.00 0.00 0.00 84 1006.8
20260507102025 45 261 3.0 8.0 0.00 0.00 0.00 85 1007.0
20260507101020 45 256 3.0 6.0 0.00 0.00 0.00 82 1007.0
20260507100020 46 209 4.0 7.0 0.00 0.00 0.00 83 1007.0
20260507095019 46 212 3.0 6.0 0.00 0.00 0.00 84 1007.1
20260507094020 46 221 4.0 8.0 0.00 0.00 0.00 85 1007.1
20260507093021 46 243 3.0 8.0 0.00 0.00 0.00 86 1007.0
20260507092019 46 237 3.0 6.0 0.00 0.00 0.00 86 1006.9
20260507091020 46 200 3.0 7.0 0.00 0.00 0.00 86 1006.9
20260507090020 46 245 3.0 6.0 0.00 0.00 0.00 86 1006.8
20260507085024 46 217 3.0 5.0 0.00 0.00 0.00 87 1006.8
20260507084025 46 214 2.0 3.0 0.00 0.00 0.00 87 1006.9
20260507083021 46 222 3.0 8.0 0.00 0.00 0.00 87 1006.9
20260507082107 46 235 2.0 5.0 0.00 0.00 0.00 87 1007.1
20260507081027 46 224 2.0 5.0 0.00 0.00 0.00 87 1007.2
20260507080021 46 199 2.0 7.0 0.00 0.00 0.00 86 1007.2
20260507075021 46 212 3.0 4.0 0.00 0.00 0.00 86 1007.3
20260507074027 46 251 3.0 5.0 0.00 0.00 0.00 86 1007.3
20260507073026 46 208 2.0 5.0 0.00 0.00 0.00 85 1007.3
20260507072046 46 236 1.0 4.0 0.00 0.00 0.00 85 1007.3
20260507071026 46 238 2.0 5.0 0.00 0.00 0.00 84 1007.2
20260507070047 46 234 2.0 4.0 0.00 0.00 0.00 84 1007.2
20260507065021 46 267 3.0 8.0 0.00 0.00 0.00 83 1007.2
20260507064027 46 275 3.0 5.0 0.00 0.00 0.00 83 1007.3
20260507063022 46 238 3.0 7.0 0.00 0.00 0.00 82 1007.3
20260507062022 46 270 3.0 7.0 0.00 0.00 0.00 83 1007.4
20260507061027 46 292 2.0 6.0 0.00 0.00 0.00 83 1007.5
20260507060022 46 257 2.0 5.0 0.00 0.00 0.00 83 1007.5
20260507055022 45 256 3.0 7.0 0.00 0.00 0.00 83 1007.7
20260507054028 45 242 2.0 6.0 0.00 0.00 0.00 83 1007.8
20260507053023 45 285 2.0 6.0 0.00 0.00 0.00 83 1007.8
20260507052027 45 306 2.0 4.0 0.00 0.00 0.00 83 1007.9
20260507051017 45 286 3.0 6.0 0.00 0.00 0.00 83 1008.0
20260507050027 46 273 2.0 5.0 0.00 0.00 0.00 83 1008.2
20260507045023 46 240 2.0 6.0 0.00 0.00 0.00 83 1008.4
20260507044017 45 252 3.0 7.0 0.00 0.00 0.00 83 1008.5
20260507043017 45 283 2.0 5.0 0.00 0.00 0.00 84 1008.5
20260507042028 45 257 2.0 4.0 0.00 0.00 0.00 84 1008.6
20260507041028 45 227 2.0 5.0 0.00 0.00 0.00 84 1008.7
20260507040018 45 252 2.0 4.0 0.00 0.00 0.00 86 1008.7
20260507035028 45 286 2.0 3.0 0.00 0.00 0.00 87 1008.7
20260507034029 45 203 2.0 3.0 0.00 0.00 0.00 87 1008.8
20260507033028 45 208 2.0 3.0 0.00 0.00 0.00 87 1008.9
20260507032028 45 200 2.0 2.0 0.00 0.00 0.00 85 1009.0
20260507031029 46 209 1.0 3.0 0.00 0.00 0.00 84 1009.1
20260507030049 46 207 2.0 3.0 0.00 0.00 0.00 82 1009.2
20260507025029 46 212 2.0 4.0 0.00 0.00 0.00 83 1009.1
20260507024051 46 226 2.0 4.0 0.00 0.00 0.00 82 1009.1
20260507023029 46 212 1.0 2.0 0.00 0.00 0.00 82 1009.2
20260507022029 46 249 2.0 4.0 0.00 0.00 0.00 81 1009.2
20260507021030 46 245 2.0 4.0 0.00 0.00 0.00 80 1009.4
20260507020031 46 224 2.0 3.0 0.00 0.00 0.00 79 1009.4
20260507015110 46 293 2.0 4.0 0.00 0.00 0.00 81 1009.5
20260507014017 46 220 1.0 3.0 0.00 0.00 0.00 81 1009.5
20260507013017 46 204 1.0 4.0 0.00 0.00 0.00 81 1009.6
20260507012032 46 221 1.0 3.0 0.00 0.00 0.00 80 1009.5
20260507011031 46 212 2.0 3.0 0.00 0.00 0.00 81 1009.5
20260507010018 46 215 2.0 4.0 0.00 0.00 0.00 81 1009.3
20260507005018 46 222 2.0 4.0 0.00 0.00 0.00 82 1009.4
20260507004017 46 217 1.0 3.0 0.00 0.00 0.00 81 1009.2
20260507003018 46 214 2.0 4.0 0.00 0.00 0.00 80 1009.0
20260507002018 47 213 1.0 3.0 0.00 0.00 0.00 79 1008.9
20260507001018 47 216 2.0 4.0 0.00 0.00 0.00 79 1008.9
20260507000019 47 219 1.0 5.0 0.00 0.00 0.00 79 1008.9
20260506235019 47 218 1.0 3.0 0.00 0.00 0.00 78 1008.8
20260506234019 47 235 2.0 4.0 0.00 0.00 0.00 77 1008.8
20260506233016 47 298 1.0 4.0 0.00 0.00 0.00 76 1008.7
20260506232019 48 269 1.0 5.0 0.00 0.00 0.00 76 1008.6
20260506231020 48 254 2.0 4.0 0.00 0.00 0.00 74 1008.5
20260506230021 48 241 2.0 5.0 0.00 0.00 0.00 75 1008.5
20260506225039 48 297 1.0 3.0 0.00 0.00 0.00 75 1008.6
20260506224020 48 233 1.0 4.0 0.00 0.00 0.00 75 1008.6
20260506223021 48 242 2.0 5.0 0.00 0.00 0.00 75 1008.7
20260506222039 49 317 3.0 6.0 0.00 0.00 0.00 74 1008.7
20260506221017 49 302 2.0 4.0 0.00 0.00 0.00 74 1008.7
20260506220019 48 319 2.0 4.0 0.00 0.00 0.00 75 1008.7
20260506215018 48 219 2.0 6.0 0.00 0.00 0.00 75 1008.7
20260506214018 48 313 2.0 4.0 0.00 0.00 0.00 75 1008.6
20260506213018 47 315 2.0 4.0 0.00 0.00 0.00 77 1008.7
20260506212019 47 287 1.0 3.0 0.00 0.00 0.00 78 1008.6
20260506211020 47 274 1.0 3.0 0.00 0.00 0.00 79 1008.8
20260506210019 47 238 2.0 4.0 0.00 0.00 0.00 78 1009.0
20260506205019 47 232 2.0 4.0 0.00 0.00 0.00 79 1008.9
20260506204039 47 289 1.0 3.0 0.00 0.00 0.00 79 1008.9
20260506203020 47 305 2.0 4.0 0.00 0.00 0.00 78 1009.0
20260506202039 47 266 2.0 5.0 0.00 0.00 0.00 79 1009.0
20260506201016 47 316 3.0 7.0 0.00 0.00 0.00 78 1009.0
20260506200019 47 319 2.0 5.0 0.00 0.00 0.00 79 1009.0
20260506195020 47 273 1.0 2.0 0.00 0.00 0.00 79 1009.2
20260506194024 46 290 1.0 2.0 0.00 0.00 0.00 79 1009.3
20260506193023 46 266 2.0 3.0 0.00 0.00 0.00 80 1009.4
20260506192023 46 324 2.0 3.0 0.00 0.00 0.00 81 1009.4
20260506191045 46 313 3.0 5.0 0.00 0.00 0.00 81 1009.3
20260506190025 46 255 1.0 2.0 0.00 0.00 0.00 78 1009.3
20260506185024 46 0.0 0.0 0.00 0.00 0.00 79 1009.3
20260506184025 45 172 2.0 3.0 0.00 0.00 0.00 80 1009.1
20260506183024 46 196 1.0 3.0 0.00 0.00 0.00 83 1009.2
20260506182024 45 213 2.0 4.0 0.00 0.00 0.00 85 1009.1
20260506181024 45 206 2.0 4.0 0.00 0.00 0.00 87 1009.3
20260506180024 45 181 2.0 4.0 0.00 0.00 0.00 88 1009.5
20260506175045 45 209 1.0 2.0 0.00 0.00 0.00 86 1009.7
20260506174026 44 222 2.0 3.0 0.00 0.00 0.00 85 1009.7
20260506173025 44 237 1.0 2.0 0.00 0.00 0.00 88 1009.9
20260506172027 44 270 1.0 2.0 0.00 0.00 0.00 87 1010.0
20260506171025 44 233 1.0 2.0 0.00 0.00 0.00 88 1010.1
20260506170107 44 300 1.0 3.0 0.00 0.00 0.00 88 1010.2
20260506165026 43 273 2.0 3.0 0.00 0.00 0.00 87 1010.2
20260506164027 43 290 1.0 3.0 0.00 0.00 0.00 90 1010.3
20260506163026 43 318 2.0 4.0 0.00 0.00 0.00 90 1010.4
20260506162027 43 218 1.0 2.0 0.00 0.00 0.00 91 1010.4
20260506161026 43 222 1.0 3.0 0.00 0.00 0.00 90 1010.6
20260506160028 43 200 1.0 2.0 0.00 0.00 0.00 91 1010.7
20260506155028 43 214 2.0 3.0 0.00 0.00 0.00 92 1010.7
20260506154027 43 216 2.0 3.0 0.00 0.00 0.00 91 1010.7
20260506153027 43 214 1.0 2.0 0.00 0.00 0.00 92 1010.8
20260506152030 43 233 1.0 2.0 0.00 0.00 0.00 91 1011.0
20260506151027 43 204 1.0 3.0 0.00 0.00 0.00 91 1010.9
20260506150029 43 315 1.0 2.0 0.00 0.00 0.00 91 1011.0
20260506145028 43 267 0.0 2.0 0.00 0.00 0.00 91 1010.8
20260506144028 43 202 0.0 1.0 0.00 0.00 0.00 92 1010.7
20260506143048 43 209 2.0 3.0 0.00 0.00 0.00 92 1010.7
20260506142029 43 199 1.0 2.0 0.00 0.00 0.00 93 1010.8
20260506141029 43 196 1.0 2.0 0.00 0.00 0.00 93 1010.7
20260506140030 43 205 1.0 2.0 0.00 0.00 0.00 92 1010.7
20260506135029 43 216 0.0 2.0 0.00 0.00 0.00 92 1010.6
20260506134029 43 213 2.0 3.0 0.00 0.00 0.00 91 1010.6
20260506133029 43 208 2.0 4.0 0.00 0.00 0.00 93 1010.5
20260506132029 43 205 2.0 3.0 0.00 0.00 0.00 92 1010.6
20260506131030 44 192 2.0 5.0 0.00 0.00 0.00 93 1010.6
20260506130031 44 189 1.0 4.0 0.00 0.00 0.00 92 1010.5
20260506125030 44 207 2.0 3.0 0.00 0.00 0.00 91 1010.6
20260506124050 44 198 2.0 3.0 0.00 0.00 0.00 91 1010.6
20260506123031 44 248 2.0 3.0 0.00 0.00 0.00 90 1010.5
20260506122111 44 276 1.0 3.0 0.00 0.00 0.00 90 1010.5
20260506121031 44 276 2.0 4.0 0.00 0.00 0.00 89 1010.6
20260506120052 44 306 2.0 3.0 0.00 0.00 0.00 89 1010.7
20260506115032 45 300 2.0 3.0 0.00 0.00 0.00 89 1010.8
20260506114051 45 289 3.0 4.0 0.00 0.00 0.00 88 1011.0
20260506113036 45 258 1.0 3.0 0.00 0.00 0.00 89 1011.0